St. Kitts, Saint Kitts and Nevis

2:11 AM AST on April 30, 2017 (GMT -0400)
Robert L Bradshaw International

Weather History for TKPK - March, 2014

Change the Weather History Date:

Friday, March 14, 2014

  Actual Average Record
Temperature  
Mean Temperature 78 °F -  
Max Temperature 84 °F 82 °F 86 °F (1998)
Min Temperature 72 °F 73 °F 70 °F (2013)
Cooling Degree Days 13    
Growing Degree Days 28 (Base 50)    
Moisture  
Dew Point 69 °F    
Average Humidity 68    
Maximum Humidity 83    
Minimum Humidity 55    
Precipitation  
Precipitation 0.02 in - - ()
Sea Level Pressure  
Sea Level Pressure 30.00 in    
Wind  
Wind Speed 8 mph ()    
Max Wind Speed 14 mph    
Max Gust Speed -    
Visibility 6.2 miles    
Events      
Averages and records for this station are not official NWS values.
T = Trace of Precipitation, MM = Missing Value Source: Averaged Metar Reports

Daily Weather History Graph

Daily Weather History Graph

Search for Another Location

Airport or City:

Trip Planner

Search our weather history database for the weather conditions in past years. The results will help you decide how hot, cold, wet, or windy it might be!

Date:

Astronomy

Mar. 14, 2014 Rise Set
Actual Time 6:19 AM AST 6:20 PM AST
Civil Twilight 5:57 AM AST 6:42 PM AST
Nautical Twilight 5:32 AM AST 7:07 PM AST
Astronomical Twilight 5:07 AM AST 7:32 PM AST
Moon 4:48 PM AST (3/14) 4:43 AM AST (3/14)
Length of Visible Light 12h 44m
Length of Day
12h 00m
Waxing Gibbous, 96% of the Moon is Illuminated
Mar 14
Waxing Gibbous
Mar 16
Full
Mar 23
Last Quarter
Mar 30
New
Apr 7
First Quarter

Hourly Weather History & Observations

Time (AST) Temp. Heat Index Dew Point Humidity Pressure Visibility Wind Dir Wind Speed Gust Speed Precip Events Conditions
6:00 AM 73.4 °F - 68.0 °F 83% 29.98 in 6.2 mi NE 6.9 mph - N/A   Partly Cloudy
7:00 AM 77.0 °F - 69.8 °F 78% 30.01 in 6.2 mi ENE 5.8 mph - N/A   Partly Cloudy
8:00 AM 80 °F - 70 °F 64% 30.04 in 22 mi ESE 9.2 mph - -   Partly Cloudy
8:00 AM 80.6 °F 83.9 °F 69.8 °F 70% 30.04 in 6.2 mi ESE 9.2 mph - N/A   Scattered Clouds
9:00 AM 80.6 °F 83.9 °F 69.8 °F 70% 30.04 in 6.2 mi East 5.8 mph - N/A   Scattered Clouds
10:00 AM 82.4 °F 86.3 °F 69.8 °F 66% 30.04 in 6.2 mi ENE 12.7 mph - N/A   Scattered Clouds
11:00 AM 84 °F - 70 °F 55% 30.05 in 22 mi NE 12.7 mph - -   Partly Cloudy
11:00 AM 84.2 °F 88.4 °F 69.8 °F 62% 30.04 in 6.2 mi NE 12.7 mph - N/A   Scattered Clouds
12:00 PM 82.4 °F 86.3 °F 69.8 °F 66% 30.04 in 6.2 mi NE 12.7 mph - N/A   Scattered Clouds
1:00 PM 84.2 °F 87.3 °F 68.0 °F 58% 30.01 in 6.2 mi ENE 13.8 mph - N/A   Scattered Clouds
2:00 PM 83 °F - 69 °F 55% 29.98 in 25 mi ENE 6.9 mph - -   Scattered Clouds
2:00 PM 82.4 °F 86.3 °F 69.8 °F 66% 29.98 in 6.2 mi ENE 13.8 mph - N/A   Partly Cloudy
3:00 PM 84.2 °F 88.4 °F 69.8 °F 62% 29.95 in 6.2 mi ENE 11.5 mph - N/A   Partly Cloudy
4:00 PM 82.4 °F 85.4 °F 68.0 °F 62% 29.95 in 6.2 mi NNE 9.2 mph - N/A   Scattered Clouds
5:00 PM 79 °F - 69 °F 63% 29.97 in 22 mi NE 11.5 mph - -   Partly Cloudy
5:00 PM 78.8 °F - 68.0 °F 69% 29.95 in 6.2 mi NE 11.5 mph - N/A   Partly Cloudy
6:00 PM 78.8 °F - 68.0 °F 69% 29.95 in 6.2 mi NE 11.5 mph - N/A   Partly Cloudy
7:00 PM 78.8 °F - 68.0 °F 69% 29.98 in 6.2 mi NE 10.4 mph - N/A   Partly Cloudy
8:00 PM 77.0 °F - 69.8 °F 78% 29.98 in 6.2 mi NE 9.2 mph - N/A   Partly Cloudy
9:00 PM 77.0 °F - 69.8 °F 78% 30.01 in 6.2 mi NNE 6.9 mph - N/A   Partly Cloudy
10:00 PM 77.0 °F - 69.8 °F 78% 30.01 in 6.2 mi NE 6.9 mph - N/A   Partly Cloudy